Lake Keowee Weather Center

Moon Phase Calendar



Lake Keowee Water Level
Online Cameras

 


      

Current Conditions in Old Pickens
12/4/2022 5:02:28 PM

53°F
Feels Like 52
Clouds
Humidity
83%
Pressure
30.12"
Wind
2 mph (E)
Dew Point
48°F
UV Index
0/10 (Low)
Visibility
6 mi

Hourly Forecast

Date & Time Sun, Dec 4
5:00 PM
Sun, Dec 4
6:00 PM
Sun, Dec 4
7:00 PM
Sun, Dec 4
8:00 PM
Sun, Dec 4
9:00 PM
Sun, Dec 4
10:00 PM
Sun, Dec 4
11:00 PM
Mon, Dec 5
12:00 AM
Mon, Dec 5
1:00 AM
Mon, Dec 5
2:00 AM
Mon, Dec 5
3:00 AM
Mon, Dec 5
4:00 AM
Mon, Dec 5
5:00 AM
Mon, Dec 5
6:00 AM
Mon, Dec 5
7:00 AM
Mon, Dec 5
8:00 AM
Mon, Dec 5
9:00 AM
Mon, Dec 5
10:00 AM
Mon, Dec 5
11:00 AM
Mon, Dec 5
12:00 PM
Mon, Dec 5
1:00 PM
Mon, Dec 5
2:00 PM
Mon, Dec 5
3:00 PM
Mon, Dec 5
4:00 PM
Mon, Dec 5
5:00 PM
Mon, Dec 5
6:00 PM
Mon, Dec 5
7:00 PM
Mon, Dec 5
8:00 PM
Mon, Dec 5
9:00 PM
Mon, Dec 5
10:00 PM
Mon, Dec 5
11:00 PM
Tue, Dec 6
12:00 AM
Tue, Dec 6
1:00 AM
Tue, Dec 6
2:00 AM
Tue, Dec 6
3:00 AM
Tue, Dec 6
4:00 AM
Tue, Dec 6
5:00 AM
Tue, Dec 6
6:00 AM
Tue, Dec 6
7:00 AM
Tue, Dec 6
8:00 AM
Tue, Dec 6
9:00 AM
Tue, Dec 6
10:00 AM
Tue, Dec 6
11:00 AM
Tue, Dec 6
12:00 PM
Tue, Dec 6
1:00 PM
Tue, Dec 6
2:00 PM
Tue, Dec 6
3:00 PM
Tue, Dec 6
4:00 PM
Condition
Clouds

Clouds

Clouds

Clouds

Clouds

Clouds

Clouds

Clouds

Clouds

Clouds

Clouds

Clouds

Clouds

Clouds

Clouds

Clouds

Clouds

Clouds

Clouds

Clouds

Rain

Rain

Rain

Rain

Rain

Rain

Rain

Rain

Rain

Rain

Rain

Rain

Rain

Rain

Rain

Rain

Rain

Rain

Clouds

Rain

Rain

Rain

Clouds

Rain

Rain

Rain

Rain

Rain
Temperature 53°F53°F53°F53°F51°F49°F49°F47°F46°F45°F45°F44°F43°F43°F43°F43°F46°F48°F50°F50°F48°F47°F46°F46°F46°F45°F45°F45°F46°F46°F46°F47°F47°F47°F48°F48°F49°F49°F49°F50°F50°F51°F52°F51°F52°F53°F53°F53°F
Feels Like 52°F52°F52°F51°F50°F48°F47°F47°F46°F45°F45°F44°F42°F41°F42°F41°F44°F47°F48°F50°F48°F47°F46°F46°F46°F45°F45°F45°F46°F46°F46°F47°F47°F47°F48°F48°F49°F49°F49°F50°F49°F50°F51°F51°F51°F52°F52°F52°F
Cloudiness 99%99%99%100%100%100%100%100%93%56%59%61%68%75%79%86%93%95%96%97%98%100%100%100%100%100%100%100%100%100%100%100%100%100%100%100%100%100%100%100%100%100%100%100%100%100%100%100%
Visibility 6 mi6 mi6 mi6 mi6 mi6 mi6 mi6 mi6 mi6 mi6 mi6 mi6 mi6 mi6 mi6 mi6 mi6 mi6 mi6 mi6 mi6 mi6 mi6 mi6 mi6 mi6 mi5 mi6 mi6 mi6 mi6 mi6 mi6 mi5 mi6 mi6 mi6 mi6 mi6 mi6 mi6 mi6 mi6 mi6 mi3 mi6 mi6 mi
Precipitation 0%0%0%0%0%0%0%0%0%0%0%0%0%0%0%0%0%0%0%0%31%94%99%100%100%100%100%100%100%100%100%100%100%100%100%100%100%100%80%43%60%65%72%68%75%92%99%99%
Humidity 83%82%82%83%87%90%86%84%81%79%79%79%80%81%79%80%70%63%59%63%68%77%84%88%91%94%95%96%96%96%96%96%96%97%97%97%97%97%97%97%97%98%96%97%98%97%97%98%
Dew Point 48°F48°F48°F48°F48°F46°F44°F42°F40°F38°F37°F37°F36°F36°F36°F36°F36°F36°F36°F37°F38°F39°F41°F42°F42°F43°F43°F44°F44°F44°F44°F45°F45°F46°F46°F46°F47°F47°F48°F48°F49°F49°F50°F50°F50°F51°F51°F51°F
Pressure 30.12"30.12"30.12"30.15"30.15"30.15"30.15"30.18"30.15"30.15"30.15"30.15"30.15"30.18"30.18"30.21"30.21"30.21"30.21"30.18"30.18"30.18"30.18"30.18"30.18"30.18"30.21"30.21"30.21"30.21"30.21"30.21"30.18"30.21"30.21"30.18"30.18"30.21"30.21"30.24"30.24"30.27"30.27"30.24"30.24"30.21"30.21"30.21"
Wind Speed 2 mph1.9 mph2.7 mph3.4 mph4 mph3.8 mph4.1 mph2.4 mph2.4 mph2 mph2 mph2.9 mph3.4 mph3.5 mph3.2 mph3.8 mph4.2 mph4.5 mph3.6 mph2.3 mph1.3 mph0.5 mph1.8 mph1.9 mph2.2 mph2 mph2.1 mph2.3 mph2.5 mph1.6 mph2.4 mph2.3 mph1.9 mph2.4 mph2.4 mph2.2 mph2 mph2.4 mph2.4 mph1.4 mph1.3 mph1.4 mph0.4 mph1 mph1.4 mph0.8 mph1.7 mph1.2 mph
Wind
Direction
92°
E
61°
ENE
83°
E
45°
NE
56°
NE
61°
ENE
62°
ENE
70°
ENE
69°
ENE
67°
ENE
73°
ENE
66°
ENE
55°
NE
65°
ENE
70°
ENE
62°
ENE
70°
ENE
85°
E
108°
ESE
117°
ESE
101°
E
54°
NE
54°
NE
34°
NE
36°
NE
51°
NE
34°
NE
40°
NE

N
11°
N
33°
NNE
19°
NNE
12°
NNE
34°
NE
28°
NNE
34°
NE
51°
NE
67°
ENE
63°
ENE
60°
ENE
86°
E
48°
NE
199°
SSW
62°
ENE
84°
E
167°
SSE
11°
N
82°
E

Daily Forecast

Date High Low Precip. Humidity
Today
Dec 4

Clouds
57 °F
45 °F
0%
72%
Monday
Dec 5

Rain
50 °F
43 °F
100%
63%
Tuesday
Dec 6

Rain
54 °F
47 °F
100%
98%
Wednesday
Dec 7

Rain
67 °F
55 °F
60%
86%
Thursday
Dec 8

Clouds
73 °F
57 °F
1%
59%
Friday
Dec 9

Rain
64 °F
49 °F
25%
50%
Saturday
Dec 10

Clouds
61 °F
43 °F
0%
42%
Sunday
Dec 11

Rain
47 °F
43 °F
100%
92%
Monday
Dec 12

Clouds
49 °F
38 °F
12%
47%
Tuesday
Dec 13

Clear
55 °F
32 °F
4%
20%
Wednesday
Dec 14

Rain
57 °F
36 °F
93%
33%
Thursday
Dec 15

Clear
48 °F
33 °F
75%
26%
Friday
Dec 16

Clouds
50 °F
29 °F
0%
26%
Saturday
Dec 17

Rain
53 °F
39 °F
100%
47%
Sunday
Dec 18

Rain
57 °F
35 °F
100%
80%
Monday
Dec 19

Clear
42 °F
32 °F
0%
42%

Temperature 8-14 Day Outlook



Precipitation 8-14 Day Outlook




Quick Links
Lake Keowee News
Lake Keowee Photos
Lake Keowee Videos




About Us
Contact Us
Site Map
Search Site
Advertise With Us
   
Keowee.USLakes.info
THE LAKE KEOWEE WEBSITE

Copyright 2022, Lakes Online
Privacy    |    Legal